contact:dominique.lefevre@mio.osupytheas.fr, maurice.libes@osupytheas.fr, didier.mallarino@osupytheas.fr
Project:EMSO http://www.emso-fr.org/EMSO-France
Depth: 2436.0 m
Title:EMSO Ligure Ouest : Data MII capteur CSTAR
DateTime,Latitude,Longitude,Instrument_Serial,Reference_Counts,Signal_Counts,Corrected_Signal_raw_counts,Calculated_Beam_c_inverse_meters,Internal_thermistor_counts
DateTime,Latitude,Longitude,Instrument_Serial,Reference_Counts,Signal_Counts,Corrected_Signal_raw_counts,Calculated_Beam_c_inverse_meters,Internal_thermistor_counts
2021-10-08T00:02:45,42.805,6.029,CST-1368DR,5167,6955,14408,0.322,551
2021-10-08T00:05:47,42.805,6.029,CST-1368DR,5166,6955,14411,0.321,551
2021-10-08T00:08:48,42.805,6.029,CST-1368DR,5166,6955,14411,0.321,550
2021-10-08T00:11:50,42.805,6.029,CST-1368DR,5167,6955,14408,0.322,551
2021-10-08T00:14:51,42.805,6.029,CST-1368DR,5166,6955,14411,0.321,551
2021-10-08T00:17:53,42.805,6.029,CST-1368DR,5166,6955,14411,0.321,551
2021-10-08T00:20:55,42.805,6.029,CST-1368DR,5166,6954,14410,0.321,551
2021-10-08T00:23:56,42.805,6.029,CST-1368DR,5166,6955,14411,0.321,551
2021-10-08T00:26:58,42.805,6.029,CST-1368DR,5166,6955,14411,0.321,551
2021-10-08T00:29:59,42.805,6.029,CST-1368DR,5166,6955,14411,0.321,551
2021-10-08T00:33:01,42.805,6.029,CST-1368DR,5166,6954,14410,0.321,551
2021-10-08T00:36:03,42.805,6.029,CST-1368DR,5166,6954,14409,0.322,551
2021-10-08T00:39:04,42.805,6.029,CST-1368DR,5166,6955,14411,0.321,551
2021-10-08T00:42:06,42.805,6.029,CST-1368DR,5166,6954,14410,0.321,551
2021-10-08T00:45:07,42.805,6.029,CST-1368DR,5166,6953,14407,0.322,551
2021-10-08T00:48:09,42.805,6.029,CST-1368DR,5166,6954,14409,0.322,551
2021-10-08T00:51:10,42.805,6.029,CST-1368DR,5166,6954,14410,0.321,551
2021-10-08T00:54:12,42.805,6.029,CST-1368DR,5167,6954,14407,0.322,551
2021-10-08T00:57:14,42.805,6.029,CST-1368DR,5166,6953,14408,0.322,551
2021-10-08T01:00:15,42.805,6.029,CST-1368DR,5166,6955,14411,0.321,551
2021-10-08T01:03:17,42.805,6.029,CST-1368DR,5166,6954,14410,0.321,551
2021-10-08T01:06:18,42.805,6.029,CST-1368DR,5166,6952,14404,0.323,551
2021-10-08T01:09:20,42.805,6.029,CST-1368DR,5167,6954,14407,0.322,551
2021-10-08T01:12:21,42.805,6.029,CST-1368DR,5166,6954,14408,0.322,551
2021-10-08T01:15:23,42.805,6.029,CST-1368DR,5166,6954,14408,0.322,551
2021-10-08T01:18:25,42.805,6.029,CST-1368DR,5167,6954,14407,0.322,551
2021-10-08T01:21:26,42.805,6.029,CST-1368DR,5166,6954,14409,0.322,551
2021-10-08T01:24:28,42.805,6.029,CST-1368DR,5166,6954,14409,0.322,551
2021-10-08T01:27:29,42.805,6.029,CST-1368DR,5166,6953,14407,0.322,551
2021-10-08T01:30:31,42.805,6.029,CST-1368DR,5166,6954,14409,0.322,551
2021-10-08T01:33:33,42.805,6.029,CST-1368DR,5166,6954,14408,0.322,551
2021-10-08T01:36:34,42.805,6.029,CST-1368DR,5166,6953,14407,0.322,551
2021-10-08T01:39:36,42.805,6.029,CST-1368DR,5166,6953,14408,0.322,551
2021-10-08T01:42:37,42.805,6.029,CST-1368DR,5166,6953,14408,0.322,551
2021-10-08T01:45:39,42.805,6.029,CST-1368DR,5166,6953,14407,0.322,551
2021-10-08T01:48:40,42.805,6.029,CST-1368DR,5166,6953,14408,0.322,551
2021-10-08T01:51:42,42.805,6.029,CST-1368DR,5166,6953,14407,0.322,551
2021-10-08T01:54:44,42.805,6.029,CST-1368DR,5166,6953,14407,0.322,551
2021-10-08T01:57:45,42.805,6.029,CST-1368DR,5166,6952,14406,0.323,551
2021-10-08T02:00:47,42.805,6.029,CST-1368DR,5166,6953,14407,0.322,551
2021-10-08T02:03:48,42.805,6.029,CST-1368DR,5166,6953,14407,0.322,551
2021-10-08T02:06:50,42.805,6.029,CST-1368DR,5166,6952,14406,0.323,551
2021-10-08T02:09:52,42.805,6.029,CST-1368DR,5166,6952,14405,0.323,551
2021-10-08T02:12:53,42.805,6.029,CST-1368DR,5166,6953,14406,0.323,551
2021-10-08T02:15:55,42.805,6.029,CST-1368DR,5166,6953,14407,0.322,551
2021-10-08T02:18:56,42.805,6.029,CST-1368DR,5166,6951,14403,0.323,551
2021-10-08T02:21:58,42.805,6.029,CST-1368DR,5166,6952,14406,0.323,551
2021-10-08T02:24:59,42.805,6.029,CST-1368DR,5166,6952,14406,0.323,551
2021-10-08T02:28:01,42.805,6.029,CST-1368DR,5166,6952,14405,0.323,551
2021-10-08T02:31:03,42.805,6.029,CST-1368DR,5166,6952,14406,0.323,551
2021-10-08T02:34:04,42.805,6.029,CST-1368DR,5166,6952,14406,0.323,551
2021-10-08T02:37:06,42.805,6.029,CST-1368DR,5166,6951,14404,0.323,551
2021-10-08T02:40:07,42.805,6.029,CST-1368DR,5166,6951,14403,0.323,551
2021-10-08T02:43:09,42.805,6.029,CST-1368DR,5166,6951,14402,0.324,551
2021-10-08T02:46:10,42.805,6.029,CST-1368DR,5166,6952,14404,0.323,551
2021-10-08T02:49:12,42.805,6.029,CST-1368DR,5166,6952,14405,0.323,551
2021-10-08T02:52:14,42.805,6.029,CST-1368DR,5166,6952,14404,0.323,551
2021-10-08T02:55:15,42.805,6.029,CST-1368DR,5166,6951,14404,0.323,551
2021-10-08T02:58:17,42.805,6.029,CST-1368DR,5166,6951,14404,0.323,551
2021-10-08T03:01:18,42.805,6.029,CST-1368DR,5166,6952,14404,0.323,551
2021-10-08T03:04:20,42.805,6.029,CST-1368DR,5166,6951,14404,0.323,551
2021-10-08T03:07:22,42.805,6.029,CST-1368DR,5166,6952,14405,0.323,551
2021-10-08T03:10:23,42.805,6.029,CST-1368DR,5166,6951,14403,0.323,551
2021-10-08T03:13:25,42.805,6.029,CST-1368DR,5166,6951,14402,0.324,551
2021-10-08T03:16:26,42.805,6.029,CST-1368DR,5166,6950,14402,0.324,551
2021-10-08T03:19:28,42.805,6.029,CST-1368DR,5166,6951,14402,0.324,551
2021-10-08T03:22:29,42.805,6.029,CST-1368DR,5166,6951,14402,0.324,551
2021-10-08T03:25:31,42.805,6.029,CST-1368DR,5166,6951,14404,0.323,551
2021-10-08T03:28:33,42.805,6.029,CST-1368DR,5166,6951,14403,0.323,551
2021-10-08T03:31:34,42.805,6.029,CST-1368DR,5166,6951,14403,0.323,551
2021-10-08T03:34:36,42.805,6.029,CST-1368DR,5166,6950,14401,0.324,551
2021-10-08T03:37:37,42.805,6.029,CST-1368DR,5166,6950,14401,0.324,551
2021-10-08T03:40:39,42.805,6.029,CST-1368DR,5166,6951,14403,0.323,551
2021-10-08T03:43:41,42.805,6.029,CST-1368DR,5166,6951,14403,0.323,551
2021-10-08T03:46:42,42.805,6.029,CST-1368DR,5166,6951,14403,0.323,551
2021-10-08T03:49:44,42.805,6.029,CST-1368DR,5166,6949,14399,0.325,551
2021-10-08T03:52:45,42.805,6.029,CST-1368DR,5166,6950,14401,0.324,551
2021-10-08T03:55:47,42.805,6.029,CST-1368DR,5166,6950,14401,0.324,551
2021-10-08T03:58:48,42.805,6.029,CST-1368DR,5166,6951,14402,0.324,551
2021-10-08T04:01:50,42.805,6.029,CST-1368DR,5166,6950,14402,0.324,551
2021-10-08T04:04:52,42.805,6.029,CST-1368DR,5166,6950,14400,0.324,551
2021-10-08T04:07:53,42.805,6.029,CST-1368DR,5166,6949,14400,0.324,551
2021-10-08T04:10:55,42.805,6.029,CST-1368DR,5166,6950,14401,0.324,551
2021-10-08T04:13:56,42.805,6.029,CST-1368DR,5166,6950,14400,0.324,551
2021-10-08T04:16:58,42.805,6.029,CST-1368DR,5166,6950,14401,0.324,551
2021-10-08T04:19:59,42.805,6.029,CST-1368DR,5166,6950,14401,0.324,551
2021-10-08T04:23:01,42.805,6.029,CST-1368DR,5166,6948,14398,0.325,551
2021-10-08T04:26:03,42.805,6.029,CST-1368DR,5166,6950,14401,0.324,551
2021-10-08T04:29:04,42.805,6.029,CST-1368DR,5166,6949,14399,0.325,551
2021-10-08T04:32:06,42.805,6.029,CST-1368DR,5166,6949,14399,0.325,551
2021-10-08T04:35:07,42.805,6.029,CST-1368DR,5166,6948,14398,0.325,551
2021-10-08T04:38:09,42.805,6.029,CST-1368DR,5166,6948,14397,0.325,551
2021-10-08T04:41:11,42.805,6.029,CST-1368DR,5166,6950,14400,0.324,551
2021-10-08T04:44:12,42.805,6.029,CST-1368DR,5166,6949,14399,0.325,551
2021-10-08T04:47:14,42.805,6.029,CST-1368DR,5166,6947,14395,0.326,551
2021-10-08T04:50:15,42.805,6.029,CST-1368DR,5166,6949,14400,0.324,551
2021-10-08T04:53:17,42.805,6.029,CST-1368DR,5166,6949,14399,0.325,551
2021-10-08T04:56:18,42.805,6.029,CST-1368DR,5166,6949,14400,0.324,551
2021-10-08T04:59:20,42.805,6.029,CST-1368DR,5166,6949,14399,0.325,550
2021-10-08T05:02:22,42.805,6.029,CST-1368DR,5166,6949,14399,0.325,550
2021-10-08T05:05:23,42.805,6.029,CST-1368DR,5166,6947,14396,0.325,551
2021-10-08T05:08:25,42.805,6.029,CST-1368DR,5166,6947,14395,0.326,551
2021-10-08T05:11:26,42.805,6.029,CST-1368DR,5166,6948,14397,0.325,551
2021-10-08T05:14:28,42.805,6.029,CST-1368DR,5166,6948,14396,0.325,551
2021-10-08T05:17:30,42.805,6.029,CST-1368DR,5166,6949,14399,0.325,551
2021-10-08T05:20:31,42.805,6.029,CST-1368DR,5166,6949,14400,0.324,551
2021-10-08T05:23:33,42.805,6.029,CST-1368DR,5166,6947,14396,0.325,551
2021-10-08T05:26:34,42.805,6.029,CST-1368DR,5166,6949,14400,0.324,551
2021-10-08T05:29:36,42.805,6.029,CST-1368DR,5166,6949,14399,0.325,551
2021-10-08T05:32:37,42.805,6.029,CST-1368DR,5166,6947,14395,0.326,551
2021-10-08T05:35:39,42.805,6.029,CST-1368DR,5166,6949,14399,0.325,551
2021-10-08T05:38:41,42.805,6.029,CST-1368DR,5166,6949,14399,0.325,551
2021-10-08T05:41:42,42.805,6.029,CST-1368DR,5166,6949,14399,0.325,551
2021-10-08T05:44:44,42.805,6.029,CST-1368DR,5166,6948,14397,0.325,551
2021-10-08T05:47:45,42.805,6.029,CST-1368DR,5166,6949,14399,0.325,551
2021-10-08T05:50:47,42.805,6.029,CST-1368DR,5166,6947,14395,0.326,551
2021-10-08T05:53:48,42.805,6.029,CST-1368DR,5166,6947,14396,0.325,551
2021-10-08T05:56:50,42.805,6.029,CST-1368DR,5166,6948,14396,0.325,550
2021-10-08T05:59:52,42.805,6.029,CST-1368DR,5166,6947,14394,0.326,551
2021-10-08T06:02:53,42.805,6.029,CST-1368DR,5166,6948,14397,0.325,551
2021-10-08T06:05:55,42.805,6.029,CST-1368DR,5166,6948,14398,0.325,551
2021-10-08T06:08:56,42.805,6.029,CST-1368DR,5166,6948,14398,0.325,551
2021-10-08T06:11:58,42.805,6.029,CST-1368DR,5166,6948,14397,0.325,551
2021-10-08T06:15:00,42.805,6.029,CST-1368DR,5166,6947,14394,0.326,551
2021-10-08T06:18:01,42.805,6.029,CST-1368DR,5166,6948,14396,0.325,551
2021-10-08T06:21:03,42.805,6.029,CST-1368DR,5166,6948,14397,0.325,551
2021-10-08T06:24:04,42.805,6.029,CST-1368DR,5166,6948,14396,0.325,551
2021-10-08T06:27:06,42.805,6.029,CST-1368DR,5166,6948,14397,0.325,551
2021-10-08T06:30:07,42.805,6.029,CST-1368DR,5166,6948,14397,0.325,551
2021-10-08T06:33:09,42.805,6.029,CST-1368DR,5166,6948,14398,0.325,551
2021-10-08T06:36:11,42.805,6.029,CST-1368DR,5166,6949,14399,0.325,551
2021-10-08T06:39:12,42.805,6.029,CST-1368DR,5166,6947,14394,0.326,551
2021-10-08T06:42:14,42.805,6.029,CST-1368DR,5166,6949,14399,0.325,551
2021-10-08T06:45:15,42.805,6.029,CST-1368DR,5166,6948,14397,0.325,551
2021-10-08T06:48:17,42.805,6.029,CST-1368DR,5166,6948,14397,0.325,551
2021-10-08T06:51:19,42.805,6.029,CST-1368DR,5166,6948,14397,0.325,551
2021-10-08T06:54:20,42.805,6.029,CST-1368DR,5166,6948,14397,0.325,551
2021-10-08T06:57:22,42.805,6.029,CST-1368DR,5166,6948,14398,0.325,551
2021-10-08T07:00:23,42.805,6.029,CST-1368DR,5166,6948,14397,0.325,551
2021-10-08T07:03:25,42.805,6.029,CST-1368DR,5166,6948,14398,0.325,551
2021-10-08T07:06:26,42.805,6.029,CST-1368DR,5166,6947,14396,0.325,551
2021-10-08T07:09:28,42.805,6.029,CST-1368DR,5166,6947,14396,0.325,551
2021-10-08T07:12:30,42.805,6.029,CST-1368DR,5166,6947,14395,0.326,551
2021-10-08T07:15:31,42.805,6.029,CST-1368DR,5166,6947,14396,0.325,551
2021-10-08T07:18:33,42.805,6.029,CST-1368DR,5166,6948,14397,0.325,551
2021-10-08T07:21:34,42.805,6.029,CST-1368DR,5166,6948,14397,0.325,551
2021-10-08T07:24:36,42.805,6.029,CST-1368DR,5166,6948,14397,0.325,551
2021-10-08T07:27:37,42.805,6.029,CST-1368DR,5166,6947,14396,0.325,551
2021-10-08T07:30:39,42.805,6.029,CST-1368DR,5166,6947,14394,0.326,551
2021-10-08T07:33:41,42.805,6.029,CST-1368DR,5166,6947,14394,0.326,551
2021-10-08T07:36:42,42.805,6.029,CST-1368DR,5166,6948,14396,0.325,551
2021-10-08T07:39:44,42.805,6.029,CST-1368DR,5165,6947,14397,0.325,551
2021-10-08T07:42:45,42.805,6.029,CST-1368DR,5166,6948,14397,0.325,551
2021-10-08T07:45:47,42.805,6.029,CST-1368DR,5165,6948,14399,0.325,551
2021-10-08T07:48:49,42.805,6.029,CST-1368DR,5165,6948,14399,0.325,551
2021-10-08T07:51:50,42.805,6.029,CST-1368DR,5165,6948,14400,0.324,551
2021-10-08T07:54:52,42.805,6.029,CST-1368DR,5166,6948,14397,0.325,551
2021-10-08T07:57:53,42.805,6.029,CST-1368DR,5165,6947,14398,0.325,551
2021-10-08T08:00:55,42.805,6.029,CST-1368DR,5166,6948,14397,0.325,551
2021-10-08T08:03:56,42.805,6.029,CST-1368DR,5165,6947,14398,0.325,551
2021-10-08T08:06:58,42.805,6.029,CST-1368DR,5165,6948,14400,0.324,551
2021-10-08T08:10:00,42.805,6.029,CST-1368DR,5165,6947,14397,0.325,551
2021-10-08T08:13:01,42.805,6.029,CST-1368DR,5166,6947,14396,0.325,551
2021-10-08T08:16:03,42.805,6.029,CST-1368DR,5166,6948,14397,0.325,551
2021-10-08T08:19:04,42.805,6.029,CST-1368DR,5166,6948,14397,0.325,551
2021-10-08T08:22:06,42.805,6.029,CST-1368DR,5165,6947,14397,0.325,551
2021-10-08T08:25:08,42.805,6.029,CST-1368DR,5165,6948,14399,0.325,551
2021-10-08T08:28:09,42.805,6.029,CST-1368DR,5165,6948,14399,0.325,551
2021-10-08T08:31:11,42.805,6.029,CST-1368DR,5166,6948,14396,0.325,551
2021-10-08T08:34:12,42.805,6.029,CST-1368DR,5166,6948,14396,0.325,551
2021-10-08T08:37:14,42.805,6.029,CST-1368DR,5165,6948,14399,0.325,551
2021-10-08T08:40:15,42.805,6.029,CST-1368DR,5166,6947,14396,0.325,551
2021-10-08T08:43:17,42.805,6.029,CST-1368DR,5166,6948,14397,0.325,551
2021-10-08T08:46:19,42.805,6.029,CST-1368DR,5166,6948,14397,0.325,551
2021-10-08T08:49:20,42.805,6.029,CST-1368DR,5166,6948,14397,0.325,551
2021-10-08T08:52:22,42.805,6.029,CST-1368DR,5166,6948,14397,0.325,551
2021-10-08T08:55:23,42.805,6.029,CST-1368DR,5165,6947,14398,0.325,551
2021-10-08T08:58:25,42.805,6.029,CST-1368DR,5166,6948,14397,0.325,551
2021-10-08T09:01:27,42.805,6.029,CST-1368DR,5166,6947,14396,0.325,551
2021-10-08T09:04:28,42.805,6.029,CST-1368DR,5165,6944,14392,0.326,551
2021-10-08T09:07:30,42.805,6.029,CST-1368DR,5165,6947,14397,0.325,551
2021-10-08T09:10:31,42.805,6.029,CST-1368DR,5165,6947,14398,0.325,551
2021-10-08T09:13:33,42.805,6.029,CST-1368DR,5165,6948,14399,0.325,551
2021-10-08T09:16:34,42.805,6.029,CST-1368DR,5165,6946,14396,0.325,551
2021-10-08T09:19:36,42.805,6.029,CST-1368DR,5166,6947,14394,0.326,551
2021-10-08T09:22:38,42.805,6.029,CST-1368DR,5165,6947,14397,0.325,551
2021-10-08T09:25:39,42.805,6.029,CST-1368DR,5165,6947,14398,0.325,551
2021-10-08T09:28:41,42.805,6.029,CST-1368DR,5165,6947,14397,0.325,551
2021-10-08T09:31:42,42.805,6.029,CST-1368DR,5165,6946,14395,0.326,551
2021-10-08T09:34:44,42.805,6.029,CST-1368DR,5165,6944,14390,0.327,551
2021-10-08T09:37:45,42.805,6.029,CST-1368DR,5165,6946,14396,0.325,551
2021-10-08T09:40:47,42.805,6.029,CST-1368DR,5165,6947,14397,0.325,551
2021-10-08T09:43:49,42.805,6.029,CST-1368DR,5165,6946,14396,0.325,551
2021-10-08T09:46:50,42.805,6.029,CST-1368DR,5165,6945,14394,0.326,551
2021-10-08T09:49:52,42.805,6.029,CST-1368DR,5165,6943,14389,0.327,551
2021-10-08T09:52:53,42.805,6.029,CST-1368DR,5165,6946,14395,0.326,551
2021-10-08T09:55:55,42.805,6.029,CST-1368DR,5165,6947,14397,0.325,551
2021-10-08T09:58:57,42.805,6.029,CST-1368DR,5165,6946,14395,0.326,551
2021-10-08T10:01:58,42.805,6.029,CST-1368DR,5165,6942,14388,0.328,551
2021-10-08T10:05:00,42.805,6.029,CST-1368DR,5165,6947,14398,0.325,551
2021-10-08T10:08:01,42.805,6.029,CST-1368DR,5165,6947,14397,0.325,551
2021-10-08T10:11:03,42.805,6.029,CST-1368DR,5165,6945,14394,0.326,551
2021-10-08T10:14:04,42.805,6.029,CST-1368DR,5165,6946,14396,0.325,551
2021-10-08T10:17:06,42.805,6.029,CST-1368DR,5165,6946,14396,0.325,551
2021-10-08T10:20:08,42.805,6.029,CST-1368DR,5165,6947,14397,0.325,551
2021-10-08T10:23:09,42.805,6.029,CST-1368DR,5165,6944,14391,0.327,551
2021-10-08T10:26:11,42.805,6.029,CST-1368DR,5165,6945,14393,0.326,551
2021-10-08T10:29:12,42.805,6.029,CST-1368DR,5165,6946,14395,0.326,551
2021-10-08T10:32:14,42.805,6.029,CST-1368DR,5165,6945,14392,0.326,551
2021-10-08T10:35:16,42.805,6.029,CST-1368DR,5165,6945,14392,0.326,551
2021-10-08T10:38:17,42.805,6.029,CST-1368DR,5165,6944,14391,0.327,551
2021-10-08T10:41:19,42.805,6.029,CST-1368DR,5165,6944,14392,0.326,551
2021-10-08T10:44:20,42.805,6.029,CST-1368DR,5165,6944,14391,0.327,551
2021-10-08T10:47:22,42.805,6.029,CST-1368DR,5165,6946,14396,0.325,551
2021-10-08T10:50:23,42.805,6.029,CST-1368DR,5165,6944,14390,0.327,551
2021-10-08T10:53:25,42.805,6.029,CST-1368DR,5165,6946,14395,0.326,551
2021-10-08T10:56:27,42.805,6.029,CST-1368DR,5165,6944,14392,0.326,551
2021-10-08T10:59:28,42.805,6.029,CST-1368DR,5165,6946,14395,0.326,551
2021-10-08T11:02:30,42.805,6.029,CST-1368DR,5165,6944,14392,0.326,551
2021-10-08T11:05:31,42.805,6.029,CST-1368DR,5165,6945,14393,0.326,551
2021-10-08T11:08:33,42.805,6.029,CST-1368DR,5165,6944,14391,0.327,551
2021-10-08T11:11:34,42.805,6.029,CST-1368DR,5165,6943,14389,0.327,551
2021-10-08T11:14:36,42.805,6.029,CST-1368DR,5165,6944,14391,0.327,551
2021-10-08T11:17:38,42.805,6.029,CST-1368DR,5165,6945,14394,0.326,551
2021-10-08T11:20:39,42.805,6.029,CST-1368DR,5165,6944,14391,0.327,551
2021-10-08T11:23:41,42.805,6.029,CST-1368DR,5165,6945,14392,0.326,551
2021-10-08T11:26:42,42.805,6.029,CST-1368DR,5165,6943,14388,0.328,551
2021-10-08T11:29:44,42.805,6.029,CST-1368DR,5165,6943,14389,0.327,550
2021-10-08T11:32:46,42.805,6.029,CST-1368DR,5165,6944,14391,0.327,551
2021-10-08T11:35:47,42.805,6.029,CST-1368DR,5165,6944,14390,0.327,550
2021-10-08T11:38:49,42.805,6.029,CST-1368DR,5165,6945,14393,0.326,551
2021-10-08T11:41:50,42.805,6.029,CST-1368DR,5165,6944,14391,0.327,551
2021-10-08T11:44:52,42.805,6.029,CST-1368DR,5165,6944,14391,0.327,551
2021-10-08T11:47:53,42.805,6.029,CST-1368DR,5165,6943,14390,0.327,551
2021-10-08T11:50:55,42.805,6.029,CST-1368DR,5165,6942,14387,0.328,551
2021-10-08T11:53:57,42.805,6.029,CST-1368DR,5165,6945,14393,0.326,551
2021-10-08T11:56:58,42.805,6.029,CST-1368DR,5165,6945,14392,0.326,551
2021-10-08T12:00:00,42.805,6.029,CST-1368DR,5165,6945,14392,0.326,551
2021-10-08T12:03:01,42.805,6.029,CST-1368DR,5165,6944,14390,0.327,551
2021-10-08T12:06:03,42.805,6.029,CST-1368DR,5165,6943,14388,0.328,551
2021-10-08T12:09:05,42.805,6.029,CST-1368DR,5165,6943,14390,0.327,551
2021-10-08T12:12:06,42.805,6.029,CST-1368DR,5165,6944,14391,0.327,551
2021-10-08T12:15:08,42.805,6.029,CST-1368DR,5165,6944,14392,0.326,551
2021-10-08T12:18:09,42.805,6.029,CST-1368DR,5165,6944,14392,0.326,551
2021-10-08T12:21:11,42.805,6.029,CST-1368DR,5165,6945,14393,0.326,551
2021-10-08T12:24:12,42.805,6.029,CST-1368DR,5165,6945,14393,0.326,551
2021-10-08T12:27:14,42.805,6.029,CST-1368DR,5165,6944,14391,0.327,551
2021-10-08T12:30:16,42.805,6.029,CST-1368DR,5165,6945,14394,0.326,551
2021-10-08T12:33:17,42.805,6.029,CST-1368DR,5165,6945,14392,0.326,551
2021-10-08T12:36:19,42.805,6.029,CST-1368DR,5165,6945,14393,0.326,551
2021-10-08T12:39:20,42.805,6.029,CST-1368DR,5165,6945,14392,0.326,551
2021-10-08T12:42:22,42.805,6.029,CST-1368DR,5165,6945,14394,0.326,550
2021-10-08T12:45:23,42.805,6.029,CST-1368DR,5165,6946,14395,0.326,551
2021-10-08T12:48:25,42.805,6.029,CST-1368DR,5165,6944,14391,0.327,551
2021-10-08T12:51:27,42.805,6.029,CST-1368DR,5165,6945,14392,0.326,551
2021-10-08T12:54:28,42.805,6.029,CST-1368DR,5165,6946,14395,0.326,551
2021-10-08T12:57:30,42.805,6.029,CST-1368DR,5165,6946,14395,0.326,551
2021-10-08T13:00:31,42.805,6.029,CST-1368DR,5165,6946,14396,0.325,551
2021-10-08T13:03:33,42.805,6.029,CST-1368DR,5165,6944,14391,0.327,551
2021-10-08T13:06:35,42.805,6.029,CST-1368DR,5165,6945,14392,0.326,551
2021-10-08T13:09:36,42.805,6.029,CST-1368DR,5165,6946,14395,0.326,551
2021-10-08T13:12:38,42.805,6.029,CST-1368DR,5165,6947,14397,0.325,551
2021-10-08T13:15:39,42.805,6.029,CST-1368DR,5165,6946,14396,0.325,551
2021-10-08T13:18:41,42.805,6.029,CST-1368DR,5165,6947,14397,0.325,551
2021-10-08T13:21:42,42.805,6.029,CST-1368DR,5165,6947,14397,0.325,551
2021-10-08T13:24:44,42.805,6.029,CST-1368DR,5165,6946,14396,0.325,551
2021-10-08T13:27:46,42.805,6.029,CST-1368DR,5165,6946,14396,0.325,551
2021-10-08T13:30:47,42.805,6.029,CST-1368DR,5165,6947,14397,0.325,551
2021-10-08T13:33:49,42.805,6.029,CST-1368DR,5165,6947,14397,0.325,551
2021-10-08T13:36:50,42.805,6.029,CST-1368DR,5165,6947,14397,0.325,551
2021-10-08T13:39:52,42.805,6.029,CST-1368DR,5165,6947,14398,0.325,551
2021-10-08T13:42:54,42.805,6.029,CST-1368DR,5165,6946,14396,0.325,551
2021-10-08T13:45:55,42.805,6.029,CST-1368DR,5165,6946,14396,0.325,551
2021-10-08T13:48:57,42.805,6.029,CST-1368DR,5165,6947,14397,0.325,551
2021-10-08T13:51:58,42.805,6.029,CST-1368DR,5165,6947,14397,0.325,551
2021-10-08T13:55:00,42.805,6.029,CST-1368DR,5165,6947,14398,0.325,551
2021-10-08T13:58:01,42.805,6.029,CST-1368DR,5165,6946,14396,0.325,551
2021-10-08T14:01:03,42.805,6.029,CST-1368DR,5165,6947,14397,0.325,551
2021-10-08T14:04:05,42.805,6.029,CST-1368DR,5165,6946,14396,0.325,551
2021-10-08T14:07:06,42.805,6.029,CST-1368DR,5165,6946,14395,0.326,551
2021-10-08T14:10:08,42.805,6.029,CST-1368DR,5165,6947,14397,0.325,551
2021-10-08T14:13:09,42.805,6.029,CST-1368DR,5165,6947,14397,0.325,551
2021-10-08T14:16:11,42.805,6.029,CST-1368DR,5165,6946,14396,0.325,551
2021-10-08T14:19:12,42.805,6.029,CST-1368DR,5165,6946,14395,0.326,551
2021-10-08T14:22:14,42.805,6.029,CST-1368DR,5165,6947,14398,0.325,551
2021-10-08T14:25:16,42.805,6.029,CST-1368DR,5165,6947,14397,0.325,551
2021-10-08T14:28:17,42.805,6.029,CST-1368DR,5165,6947,14398,0.325,551
2021-10-08T14:31:19,42.805,6.029,CST-1368DR,5165,6947,14397,0.325,551
2021-10-08T14:34:20,42.805,6.029,CST-1368DR,5165,6946,14396,0.325,551
2021-10-08T14:37:22,42.805,6.029,CST-1368DR,5165,6947,14397,0.325,551
2021-10-08T14:40:24,42.805,6.029,CST-1368DR,5165,6946,14396,0.325,551
2021-10-08T14:43:25,42.805,6.029,CST-1368DR,5165,6946,14396,0.325,551
2021-10-08T14:46:27,42.805,6.029,CST-1368DR,5165,6947,14397,0.325,551
2021-10-08T14:49:28,42.805,6.029,CST-1368DR,5165,6946,14396,0.325,551
2021-10-08T14:52:30,42.805,6.029,CST-1368DR,5165,6947,14397,0.325,550
2021-10-08T14:55:31,42.805,6.029,CST-1368DR,5165,6944,14391,0.327,551
2021-10-08T14:58:33,42.805,6.029,CST-1368DR,5165,6947,14397,0.325,551
2021-10-08T15:01:35,42.805,6.029,CST-1368DR,5165,6946,14396,0.325,551
2021-10-08T15:04:36,42.805,6.029,CST-1368DR,5165,6947,14397,0.325,551
2021-10-08T15:07:38,42.805,6.029,CST-1368DR,5165,6947,14397,0.325,551
2021-10-08T15:10:39,42.805,6.029,CST-1368DR,5165,6946,14396,0.325,551
2021-10-08T15:13:41,42.805,6.029,CST-1368DR,5165,6947,14397,0.325,551
2021-10-08T15:16:43,42.805,6.029,CST-1368DR,5165,6946,14395,0.326,551
2021-10-08T15:19:44,42.805,6.029,CST-1368DR,5165,6945,14394,0.326,551
2021-10-08T15:22:46,42.805,6.029,CST-1368DR,5165,6944,14392,0.326,551
2021-10-08T15:25:47,42.805,6.029,CST-1368DR,5165,6947,14397,0.325,551
2021-10-08T15:28:49,42.805,6.029,CST-1368DR,5165,6946,14395,0.326,551
2021-10-08T15:31:50,42.805,6.029,CST-1368DR,5165,6946,14396,0.325,551
2021-10-08T15:34:52,42.805,6.029,CST-1368DR,5165,6946,14395,0.326,551
2021-10-08T15:37:54,42.805,6.029,CST-1368DR,5165,6946,14396,0.325,551
2021-10-08T15:40:55,42.805,6.029,CST-1368DR,5165,6946,14396,0.325,551
2021-10-08T15:43:57,42.805,6.029,CST-1368DR,5165,6945,14394,0.326,550
2021-10-08T15:46:58,42.805,6.029,CST-1368DR,5165,6945,14393,0.326,551
2021-10-08T15:50:00,42.805,6.029,CST-1368DR,5165,6946,14395,0.326,551
2021-10-08T15:53:01,42.805,6.029,CST-1368DR,5165,6946,14396,0.325,551
2021-10-08T15:56:03,42.805,6.029,CST-1368DR,5165,6947,14397,0.325,550
2021-10-08T15:59:05,42.805,6.029,CST-1368DR,5165,6946,14396,0.325,551
2021-10-08T16:02:06,42.805,6.029,CST-1368DR,5165,6946,14396,0.325,551
2021-10-08T16:05:08,42.805,6.029,CST-1368DR,5165,6946,14395,0.326,551
2021-10-08T16:08:09,42.805,6.029,CST-1368DR,5165,6946,14395,0.326,551
2021-10-08T16:11:11,42.805,6.029,CST-1368DR,5165,6946,14395,0.326,551
2021-10-08T16:14:13,42.805,6.029,CST-1368DR,5165,6946,14396,0.325,551
2021-10-08T16:17:14,42.805,6.029,CST-1368DR,5165,6946,14395,0.326,551
2021-10-08T16:20:16,42.805,6.029,CST-1368DR,5165,6946,14395,0.326,551
2021-10-08T16:23:17,42.805,6.029,CST-1368DR,5165,6946,14395,0.326,551
2021-10-08T16:26:19,42.805,6.029,CST-1368DR,5165,6946,14396,0.325,551
2021-10-08T16:29:20,42.805,6.029,CST-1368DR,5165,6945,14394,0.326,551
2021-10-08T16:32:22,42.805,6.029,CST-1368DR,5165,6946,14396,0.325,551
2021-10-08T16:35:24,42.805,6.029,CST-1368DR,5165,6946,14395,0.326,551
2021-10-08T16:38:25,42.805,6.029,CST-1368DR,5165,6946,14395,0.326,551
2021-10-08T16:41:27,42.805,6.029,CST-1368DR,5165,6946,14396,0.325,550
2021-10-08T16:44:28,42.805,6.029,CST-1368DR,5165,6945,14394,0.326,551
2021-10-08T16:47:30,42.805,6.029,CST-1368DR,5165,6946,14395,0.326,551
2021-10-08T16:50:32,42.805,6.029,CST-1368DR,5165,6943,14390,0.327,551
2021-10-08T16:53:33,42.805,6.029,CST-1368DR,5165,6944,14392,0.326,551